QPF
0.09 0.08 0.07 0.07 0.06 0.05 0.06 0.06 0.06 0.06 0.06 0.05 0.05 0.05 0.05 0.05 0.04 0.03 0.03 0.05 0.06 0.07 0.10 0.11 0.11 0.10 0.07 0.05 0.03 0.02 0.01 0.00 0.01 0.01 0.01 0.01 0.01 0.00 0.00 0.00 0.00 0.01 0.00
0.07 0.08 0.07 0.08 0.07 0.06 0.04 0.03 0.02 0.03 0.04 0.04 0.04 0.04 0.05 0.05 0.04 0.03 0.03 0.04 0.07 0.09 0.10 0.10 0.11 0.12 0.11 0.08 0.05 0.03 0.02 0.01 0.01 0.01 0.01 0.01 0.01 0.00 0.00 0.00 0.00 0.00 0.00
0.06 0.07 0.08 0.07 0.06 0.07 0.06 0.04 0.03 0.03 0.04 0.05 0.05 0.04 0.05 0.06 0.04 0.02 0.02 0.01 0.03 0.06 0.08 0.09 0.10 0.13 0.13 0.12 0.09 0.06 0.04 0.03 0.02 0.02 0.01 0.01 0.00 0.00 0.00 0.00 0.00 0.00 0.00
0.06 0.06 0.05 0.04 0.05 0.05 0.05 0.06 0.05 0.05 0.06 0.06 0.06 0.05 0.05 0.05 0.04 0.03 0.02 0.01 0.01 0.02 0.06 0.11 0.13 0.14 0.14 0.13 0.12 0.11 0.08 0.05 0.04 0.03 0.02 0.01 0.00 0.00 0.00 0.00 0.00 0.00 0.00
0.05 0.05 0.05 0.04 0.04 0.04 0.04 0.04 0.05 0.05 0.05 0.05 0.05 0.04 0.04 0.03 0.03 0.03 0.02 0.02 0.02 0.02 0.03 0.07 0.14 0.15 0.16 0.15 0.16 0.16 0.14 0.10 0.07 0.04 0.03 0.01 0.01 0.01 0.00 0.00 0.00 0.00 0.00
0.03 0.04 0.04 0.03 0.02 0.02 0.03 0.03 0.05 0.05 0.03 0.03 0.02 0.02 0.03 0.03 0.03 0.03 0.03 0.03 0.03 0.04 0.05 0.05 0.07 0.08 0.14 0.16 0.17 0.19 0.21 0.17 0.12 0.08 0.04 0.02 0.01 0.01 0.00 0.00 0.00 0.00 0.00
0.01 0.02 0.02 0.02 0.01 0.01 0.01 0.02 0.02 0.03 0.02 0.02 0.02 0.02 0.02 0.02 0.02 0.02 0.03 0.02 0.03 0.04 0.04 0.04 0.04 0.05 0.06 0.11 0.12 0.16 0.20 0.22 0.21 0.17 0.11 0.06 0.04 0.02 0.01 0.00 0.00 0.00 0.00
0.01 0.01 0.01 0.01 0.01 0.01 0.01 0.01 0.01 0.01 0.01 0.01 0.01 0.01 0.01 0.01 0.01 0.01 0.02 0.02 0.02 0.03 0.03 0.04 0.05 0.06 0.07 0.08 0.09 0.13 0.17 0.20 0.23 0.24 0.20 0.15 0.10 0.05 0.03 0.01 0.01 0.00 0.00
0.00 0.00 0.00 0.00 0.00 0.00 0.00 0.00 0.00 0.00 0.00 0.00 0.00 0.01 0.00 0.00 0.00 0.01 0.01 0.01 0.01 0.02 0.03 0.04 0.05 0.06 0.07 0.07 0.08 0.11 0.15 0.15 0.20 0.24 0.22 0.19 0.16 0.11 0.07 0.04 0.02 0.01 0.00
0.00 0.00 0.00 0.00 0.00 0.00 0.00 0.01 0.01 0.00 0.00 0.01 0.01 0.00 0.00 0.00 0.00 0.00 0.00 0.01 0.01 0.01 0.02 0.04 0.05 0.04 0.05 0.06 0.07 0.08 0.08 0.09 0.14 0.20 0.24 0.23 0.19 0.17 0.14 0.10 0.07 0.04 0.01
0.00 0.00 0.00 0.00 0.00 0.00 0.00 0.00 0.00 0.00 0.00 0.00 0.00 0.00 0.00 0.00 0.00 0.00 0.00 0.00 0.00 0.00 0.01 0.02 0.04 0.06 0.06 0.06 0.06 0.07 0.08 0.09 0.11 0.15 0.21 0.24 0.24 0.21 0.21 0.18 0.14 0.09 0.05
0.00 0.00 0.00 0.00 0.00 0.00 0.00 0.00 0.00 0.00 0.00 0.00 0.00 0.00 0.00 0.00 0.00 0.00 0.00 0.00 0.00 0.00 0.00 0.00 0.01 0.02 0.05 0.07 0.07 0.07 0.07 0.08 0.08 0.08 0.13 0.19 0.21 0.23 0.23 0.22 0.21 0.17 0.12
0.00 0.00 0.00 0.00 0.00 0.00 0.00 0.00 0.00 0.00 0.00 0.00 0.00 0.00 0.00 0.00 0.00 0.00 0.00 0.00 0.00 0.00 0.00 0.00 0.00 0.01 0.02 0.04 0.07 0.09 0.08 0.08 0.07 0.07 0.07 0.11 0.15 0.17 0.19 0.21 0.22 0.22 0.19
0.00 0.00 0.00 0.00 0.00 0.00 0.00 0.00 0.00 0.00 0.00 0.00 0.00 0.00 0.00 0.00 0.00 0.00 0.00 0.00 0.00 0.00 0.00 0.00 0.00 0.00 0.00 0.01 0.02 0.03 0.06 0.08 0.08 0.08 0.07 0.08 0.10 0.13 0.15 0.17 0.19 0.21 0.20
0.00 0.00 0.00 0.00 0.00 0.00 0.00 0.00 0.00 0.00 0.00 0.00 0.00 0.00 0.00 0.00 0.00 0.00 0.00 0.00 0.00 0.00 0.00 0.00 0.00 0.00 0.00 0.00 0.00 0.00 0.02 0.05 0.07 0.10 0.09 0.06 0.07 0.08 0.10 0.12 0.13 0.15 0.16
0.00 0.00 0.00 0.00 0.00 0.00 0.00 0.00 0.00 0.00 0.00 0.00 0.00 0.00 0.00 0.00 0.00 0.00 0.00 0.00 0.00 0.00 0.00 0.00 0.00 0.00 0.00 0.00 0.00 0.00 0.01 0.02 0.04 0.07 0.08 0.07 0.05 0.06 0.06 0.08 0.09 0.10 0.11
0.00 0.00 0.00 0.00 0.00 0.00 0.00 0.00 0.00 0.00 0.00 0.00 0.00 0.00 0.00 0.00 0.00 0.00 0.00 0.00 0.00 0.00 0.00 0.00 0.00 0.00 0.00 0.00 0.00 0.00 0.00 0.01 0.01 0.03 0.05 0.06 0.04 0.04 0.05 0.06 0.07 0.08 0.09
0.00 0.00 0.00 0.00 0.00 0.00 0.00 0.00 0.00 0.00 0.00 0.00 0.00 0.00 0.00 0.00 0.00 0.00 0.00 0.00 0.00 0.00 0.00 0.00 0.00 0.00 0.00 0.00 0.00 0.00 0.00 0.00 0.00 0.01 0.01 0.03 0.03 0.03 0.04 0.04 0.05 0.06 0.07
0.00 0.00 0.00 0.00 0.00 0.00 0.00 0.00 0.00 0.00 0.00 0.00 0.00 0.00 0.00 0.00 0.00 0.00 0.00 0.00 0.00 0.00 0.00 0.00 0.00 0.00 0.00 0.00 0.00 0.00 0.00 0.00 0.00 0.00 0.00 0.01 0.01 0.02 0.02 0.03 0.03 0.04 0.06
0.00 0.00 0.00 0.00 0.00 0.00 0.00 0.00 0.00 0.00 0.00 0.00 0.00 0.00 0.00 0.00 0.00 0.00 0.00 0.00 0.00 0.00 0.00 0.00 0.00 0.00 0.00 0.00 0.00 0.00 0.00 0.00 0.00 0.00 0.00 0.00 0.00 0.01 0.01 0.02 0.02 0.03 0.04
0.00 0.00 0.00 0.00 0.00 0.00 0.00 0.00 0.00 0.00 0.00 0.00 0.00 0.00 0.00 0.00 0.00 0.00 0.00 0.00 0.00 0.00 0.00 0.00 0.00 0.00 0.00 0.00 0.00 0.00 0.00 0.00 0.00 0.00 0.00 0.00 0.00 0.00 0.00 0.01 0.02 0.03 0.03
0.00 0.00 0.00 0.00 0.00 0.00 0.00 0.00 0.00 0.00 0.00 0.00 0.00 0.00 0.00 0.00 0.00 0.00 0.00 0.00 0.00 0.00 0.00 0.00 0.00 0.00 0.00 0.00 0.00 0.00 0.00 0.00 0.00 0.00 0.00 0.00 0.00 0.00 0.00 0.00 0.01 0.02 0.03
0.00 0.00 0.00 0.00 0.00 0.00 0.00 0.00 0.00 0.00 0.00 0.00 0.00 0.00 0.00 0.00 0.00 0.00 0.00 0.00 0.00 0.00 0.00 0.00 0.00 0.00 0.00 0.00 0.00 0.00 0.00 0.00 0.00 0.00 0.00 0.00 0.00 0.00 0.01 0.01 0.01 0.01 0.02
0.00 0.00 0.00 0.00 0.00 0.00 0.00 0.00 0.00 0.00 0.00 0.00 0.00 0.00 0.00 0.00 0.00 0.00 0.00 0.00 0.00 0.00 0.00 0.00 0.00 0.00 0.00 0.00 0.00 0.00 0.00 0.00 0.00 0.00 0.00 0.00 0.00 0.00 0.00 0.01 0.01 0.01 0.02
0.00 0.00 0.00 0.00 0.00 0.00 0.00 0.00 0.00 0.00 0.00 0.00 0.00 0.00 0.00 0.00 0.00 0.00 0.00 0.00 0.00 0.00 0.00 0.00 0.00 0.00 0.00 0.00 0.00 0.00 0.00 0.00 0.00 0.00 0.00 0.00 0.00 0.00 0.00 0.00 0.01 0.01 0.02
0.00 0.00 0.00 0.00 0.01 0.00 0.01 0.01 0.01 0.00 0.00 0.00 0.00 0.00 0.00 0.00 0.00 0.00 0.00 0.00 0.00 0.00 0.00 0.00 0.00 0.00 0.00 0.00 0.00 0.00 0.00 0.00 0.00 0.00 0.00 0.00 0.00 0.00 0.00 0.01 0.01 0.01 0.02
MSLP
1017.78 1017.86 1017.89 1017.91 1017.93 1017.98 1018.06 1018.17 1018.28 1018.37 1018.43 1018.44 1018.42 1018.38 1018.34 1018.31 1018.33 1018.39 1018.49 1018.63 1018.79 1018.94 1019.09 1019.23 1019.36 1019.50 1019.66 1019.85 1020.07 1020.33 1020.61 1020.92 1021.22 1021.53 1021.83 1022.12 1022.40 1022.68 1022.94 1023.20 1023.44 1023.67 1023.88
1017.87 1017.94 1017.98 1018.01 1018.06 1018.13 1018.24 1018.37 1018.50 1018.62 1018.70 1018.74 1018.74 1018.71 1018.65 1018.60 1018.56 1018.56 1018.59 1018.65 1018.73 1018.83 1018.94 1019.05 1019.17 1019.31 1019.47 1019.65 1019.86 1020.11 1020.38 1020.68 1021.00 1021.32 1021.66 1021.99 1022.32 1022.63 1022.93 1023.20 1023.46 1023.69 1023.90
1017.92 1018.00 1018.06 1018.13 1018.22 1018.33 1018.47 1018.63 1018.79 1018.94 1019.05 1019.11 1019.12 1019.09 1019.02 1018.93 1018.84 1018.77 1018.71 1018.67 1018.67 1018.69 1018.74 1018.81 1018.90 1019.02 1019.17 1019.34 1019.55 1019.78 1020.05 1020.35 1020.67 1021.02 1021.38 1021.76 1022.13 1022.48 1022.82 1023.13 1023.40 1023.65 1023.87
1017.93 1018.03 1018.14 1018.26 1018.40 1018.56 1018.75 1018.94 1019.12 1019.28 1019.40 1019.48 1019.50 1019.47 1019.39 1019.27 1019.12 1018.97 1018.82 1018.69 1018.59 1018.52 1018.49 1018.50 1018.56 1018.65 1018.78 1018.95 1019.15 1019.38 1019.64 1019.94 1020.27 1020.63 1021.01 1021.42 1021.82 1022.22 1022.60 1022.94 1023.25 1023.53 1023.77
1017.93 1018.06 1018.22 1018.39 1018.59 1018.80 1019.02 1019.24 1019.43 1019.60 1019.72 1019.80 1019.82 1019.79 1019.69 1019.55 1019.37 1019.15 1018.92 1018.70 1018.50 1018.34 1018.23 1018.17 1018.18 1018.24 1018.35 1018.50 1018.69 1018.91 1019.17 1019.46 1019.79 1020.15 1020.54 1020.96 1021.40 1021.83 1022.24 1022.63 1022.98 1023.29 1023.58
1017.94 1018.10 1018.30 1018.52 1018.77 1019.03 1019.27 1019.49 1019.68 1019.83 1019.95 1020.02 1020.04 1020.01 1019.92 1019.77 1019.56 1019.30 1019.01 1018.71 1018.43 1018.18 1017.99 1017.86 1017.81 1017.83 1017.91 1018.04 1018.22 1018.42 1018.66 1018.94 1019.25 1019.60 1019.99 1020.41 1020.85 1021.30 1021.74 1022.16 1022.56 1022.92 1023.26
1017.96 1018.14 1018.37 1018.64 1018.93 1019.20 1019.45 1019.67 1019.84 1019.97 1020.07 1020.13 1020.15 1020.13 1020.05 1019.91 1019.70 1019.43 1019.11 1018.76 1018.41 1018.09 1017.82 1017.63 1017.52 1017.50 1017.54 1017.64 1017.78 1017.96 1018.17 1018.42 1018.70 1019.02 1019.38 1019.78 1020.21 1020.66 1021.11 1021.56 1021.99 1022.40 1022.79
1018.01 1018.20 1018.45 1018.74 1019.04 1019.32 1019.57 1019.76 1019.90 1020.01 1020.08 1020.14 1020.17 1020.17 1020.12 1020.01 1019.83 1019.57 1019.24 1018.87 1018.47 1018.10 1017.78 1017.52 1017.36 1017.27 1017.27 1017.32 1017.42 1017.56 1017.72 1017.92 1018.15 1018.42 1018.73 1019.09 1019.50 1019.93 1020.38 1020.84 1021.30 1021.75 1022.18
1018.08 1018.27 1018.53 1018.82 1019.12 1019.40 1019.62 1019.78 1019.90 1019.97 1020.03 1020.09 1020.14 1020.17 1020.17 1020.11 1019.97 1019.74 1019.43 1019.06 1018.65 1018.24 1017.87 1017.56 1017.34 1017.19 1017.13 1017.13 1017.17 1017.24 1017.35 1017.47 1017.64 1017.84 1018.09 1018.40 1018.75 1019.15 1019.59 1020.04 1020.51 1020.98 1021.44
1018.18 1018.35 1018.60 1018.89 1019.18 1019.44 1019.63 1019.77 1019.86 1019.91 1019.96 1020.02 1020.10 1020.17 1020.22 1020.22 1020.14 1019.96 1019.68 1019.32 1018.91 1018.49 1018.08 1017.73 1017.45 1017.25 1017.12 1017.05 1017.02 1017.02 1017.05 1017.10 1017.19 1017.31 1017.50 1017.74 1018.04 1018.39 1018.79 1019.23 1019.69 1020.16 1020.64
1018.29 1018.45 1018.69 1018.97 1019.24 1019.47 1019.64 1019.74 1019.81 1019.85 1019.90 1019.97 1020.08 1020.19 1020.29 1020.35 1020.32 1020.19 1019.95 1019.62 1019.22 1018.79 1018.37 1017.98 1017.66 1017.40 1017.21 1017.07 1016.97 1016.89 1016.83 1016.80 1016.81 1016.86 1016.97 1017.15 1017.39 1017.70 1018.07 1018.47 1018.91 1019.37 1019.83
1018.41 1018.57 1018.79 1019.05 1019.29 1019.50 1019.64 1019.73 1019.78 1019.81 1019.87 1019.95 1020.08 1020.23 1020.37 1020.46 1020.48 1020.39 1020.19 1019.89 1019.51 1019.08 1018.65 1018.25 1017.89 1017.59 1017.34 1017.14 1016.97 1016.82 1016.68 1016.58 1016.51 1016.50 1016.55 1016.67 1016.86 1017.13 1017.45 1017.82 1018.23 1018.65 1019.09
1018.54 1018.69 1018.90 1019.14 1019.36 1019.54 1019.66 1019.72 1019.76 1019.79 1019.84 1019.94 1020.08 1020.24 1020.40 1020.53 1020.57 1020.51 1020.33 1020.05 1019.69 1019.28 1018.86 1018.46 1018.08 1017.76 1017.47 1017.22 1016.99 1016.78 1016.58 1016.42 1016.29 1016.23 1016.23 1016.31 1016.47 1016.70 1016.98 1017.32 1017.68 1018.06 1018.46
1018.65 1018.80 1019.00 1019.22 1019.41 1019.56 1019.66 1019.70 1019.73 1019.75 1019.80 1019.90 1020.03 1020.20 1020.36 1020.48 1020.53 1020.48 1020.32 1020.06 1019.73 1019.34 1018.94 1018.55 1018.19 1017.85 1017.55 1017.27 1017.00 1016.75 1016.51 1016.30 1016.13 1016.03 1016.00 1016.06 1016.19 1016.40 1016.66 1016.96 1017.28 1017.61 1017.95
1018.72 1018.88 1019.07 1019.26 1019.42 1019.54 1019.62 1019.65 1019.65 1019.66 1019.70 1019.79 1019.91 1020.05 1020.20 1020.30 1020.34 1020.28 1020.12 1019.88 1019.57 1019.22 1018.86 1018.50 1018.16 1017.85 1017.55 1017.26 1016.98 1016.70 1016.44 1016.20 1016.01 1015.89 1015.85 1015.89 1016.01 1016.20 1016.44 1016.71 1016.99 1017.27 1017.54
1018.73 1018.89 1019.06 1019.23 1019.37 1019.46 1019.50 1019.51 1019.50 1019.50 1019.52 1019.58 1019.68 1019.79 1019.89 1019.97 1019.97 1019.90 1019.75 1019.52 1019.24 1018.93 1018.62 1018.31 1018.01 1017.73 1017.46 1017.18 1016.90 1016.62 1016.35 1016.10 1015.90 1015.77 1015.71 1015.75 1015.86 1016.04 1016.26 1016.50 1016.74 1016.97 1017.18
1018.64 1018.80 1018.96 1019.10 1019.21 1019.27 1019.29 1019.28 1019.25 1019.23 1019.23 1019.26 1019.33 1019.40 1019.47 1019.50 1019.48 1019.39 1019.23 1019.02 1018.78 1018.51 1018.25 1017.99 1017.75 1017.52 1017.28 1017.03 1016.77 1016.49 1016.22 1015.97 1015.76 1015.62 1015.56 1015.58 1015.69 1015.85 1016.05 1016.26 1016.46 1016.64 1016.80
1018.44 1018.59 1018.73 1018.85 1018.94 1018.98 1018.98 1018.95 1018.90 1018.86 1018.84 1018.85 1018.88 1018.92 1018.95 1018.95 1018.90 1018.80 1018.64 1018.45 1018.23 1018.01 1017.80 1017.60 1017.42 1017.23 1017.03 1016.81 1016.57 1016.31 1016.03 1015.78 1015.56 1015.41 1015.34 1015.34 1015.43 1015.56 1015.73 1015.91 1016.08 1016.22 1016.33
1018.12 1018.26 1018.39 1018.50 1018.56 1018.58 1018.57 1018.53 1018.47 1018.42 1018.38 1018.37 1018.37 1018.38 1018.38 1018.35 1018.29 1018.18 1018.03 1017.86 1017.67 1017.50 1017.33 1017.18 1017.04 1016.89 1016.73 1016.53 1016.31 1016.05 1015.78 1015.52 1015.29 1015.12 1015.02 1015.00 1015.05 1015.16 1015.29 1015.44 1015.56 1015.67 1015.74
1017.69 1017.83 1017.96 1018.05 1018.11 1018.12 1018.09 1018.04 1017.98 1017.91 1017.87 1017.84 1017.82 1017.82 1017.80 1017.76 1017.68 1017.58 1017.44 1017.29 1017.13 1016.99 1016.86 1016.74 1016.63 1016.51 1016.37 1016.19 1015.97 1015.72 1015.44 1015.17 1014.92 1014.73 1014.60 1014.55 1014.56 1014.62 1014.72 1014.82 1014.91 1014.98 1015.02
1017.21 1017.35 1017.47 1017.56 1017.61 1017.61 1017.58 1017.52 1017.44 1017.37 1017.32 1017.28 1017.25 1017.24 1017.21 1017.17 1017.10 1017.01 1016.89 1016.75 1016.62 1016.50 1016.38 1016.28 1016.19 1016.08 1015.94 1015.77 1015.55 1015.30 1015.02 1014.74 1014.48 1014.26 1014.10 1014.01 1013.98 1014.00 1014.04 1014.10 1014.16 1014.19 1014.21
1016.70 1016.84 1016.96 1017.05 1017.09 1017.09 1017.05 1016.98 1016.89 1016.81 1016.74 1016.69 1016.66 1016.65 1016.63 1016.59 1016.54 1016.46 1016.35 1016.24 1016.12 1016.00 1015.90 1015.80 1015.70 1015.58 1015.44 1015.26 1015.04 1014.79 1014.51 1014.22 1013.95 1013.72 1013.54 1013.41 1013.35 1013.32 1013.33 1013.35 1013.36 1013.36 1013.35
1016.21 1016.35 1016.47 1016.55 1016.59 1016.58 1016.52 1016.43 1016.32 1016.22 1016.14 1016.08 1016.05 1016.03 1016.02 1016.00 1015.97 1015.90 1015.82 1015.71 1015.60 1015.48 1015.37 1015.25 1015.14 1015.00 1014.85 1014.66 1014.44 1014.19 1013.91 1013.63 1013.37 1013.13 1012.94 1012.80 1012.71 1012.65 1012.62 1012.61 1012.58 1012.55 1012.50
1015.75 1015.89 1016.01 1016.08 1016.10 1016.07 1015.98 1015.86 1015.73 1015.61 1015.50 1015.44 1015.40 1015.39 1015.39 1015.38 1015.37 1015.32 1015.25 1015.15 1015.04 1014.91 1014.77 1014.63 1014.49 1014.33 1014.16 1013.96 1013.74 1013.50 1013.24 1012.98 1012.74 1012.52 1012.34 1012.20 1012.09 1012.02 1011.97 1011.92 1011.87 1011.80 1011.71
1015.33 1015.46 1015.57 1015.63 1015.62 1015.55 1015.43 1015.27 1015.11 1014.95 1014.83 1014.75 1014.71 1014.70 1014.72 1014.73 1014.73 1014.70 1014.64 1014.55 1014.42 1014.27 1014.11 1013.94 1013.76 1013.58 1013.38 1013.18 1012.97 1012.74 1012.51 1012.28 1012.07 1011.89 1011.73 1011.60 1011.51 1011.43 1011.37 1011.30 1011.22 1011.12 1010.99
1014.91 1015.04 1015.13 1015.15 1015.11 1015.00 1014.84 1014.65 1014.45 1014.27 1014.13 1014.04 1014.00 1014.00 1014.02 1014.06 1014.07 1014.05 1014.00 1013.90 1013.76 1013.58 1013.39 1013.18 1012.97 1012.75 1012.54 1012.33 1012.13 1011.92 1011.72 1011.54 1011.37 1011.22 1011.10 1011.01 1010.93 1010.87 1010.80 1010.73 1010.62 1010.49 1010.33
Thickness
5723 5722 5721 5721 5720 5720 5719 5719 5719 5718 5719 5719 5719 5720 5721 5721 5721 5722 5723 5723 5724 5724 5724 5723 5722 5721 5720 5720 5720 5719 5719 5718 5718 5717 5716 5716 5715 5715 5714 5713 5712 5711 5711
5721 5720 5719 5717 5717 5716 5716 5716 5715 5715 5715 5715 5716 5716 5717 5718 5718 5719 5720 5721 5722 5722 5722 5722 5721 5720 5719 5718 5718 5718 5717 5717 5717 5716 5715 5714 5714 5713 5713 5712 5711 5710 5710
5719 5718 5716 5715 5714 5714 5714 5713 5712 5712 5712 5712 5712 5713 5714 5714 5715 5716 5717 5718 5719 5720 5720 5720 5719 5719 5718 5717 5716 5716 5716 5715 5715 5714 5714 5713 5712 5712 5712 5711 5710 5710 5709
5716 5715 5713 5712 5711 5711 5710 5709 5708 5708 5707 5707 5707 5709 5710 5710 5711 5712 5714 5715 5716 5717 5718 5718 5717 5717 5716 5716 5715 5714 5714 5713 5713 5713 5712 5712 5711 5711 5710 5710 5709 5709 5708
5713 5711 5710 5709 5708 5707 5706 5706 5704 5703 5703 5703 5704 5705 5705 5706 5708 5709 5710 5711 5712 5713 5714 5715 5715 5714 5714 5714 5714 5713 5712 5712 5712 5711 5710 5710 5710 5710 5709 5709 5708 5708 5707
5709 5708 5706 5705 5704 5703 5701 5700 5699 5699 5698 5698 5699 5700 5700 5702 5703 5705 5706 5707 5708 5709 5710 5711 5711 5711 5711 5712 5712 5711 5711 5710 5710 5710 5709 5709 5709 5709 5708 5708 5708 5707 5707
5706 5705 5703 5702 5701 5699 5697 5697 5696 5694 5693 5693 5692 5692 5694 5697 5698 5699 5701 5702 5703 5704 5705 5706 5707 5707 5708 5709 5710 5710 5710 5709 5709 5708 5708 5708 5707 5708 5708 5708 5707 5707 5706
5704 5703 5700 5699 5697 5695 5694 5693 5692 5689 5688 5687 5686 5683 5682 5685 5690 5693 5694 5695 5697 5698 5699 5701 5702 5703 5704 5706 5707 5707 5708 5708 5707 5707 5706 5706 5706 5707 5707 5707 5707 5706 5706
5701 5700 5698 5696 5694 5692 5690 5689 5687 5685 5682 5681 5681 5679 5675 5673 5677 5683 5685 5687 5689 5691 5693 5695 5697 5699 5700 5702 5703 5704 5705 5706 5706 5706 5705 5705 5705 5706 5706 5706 5706 5706 5705
5699 5697 5695 5693 5691 5689 5687 5686 5684 5682 5679 5677 5675 5674 5673 5671 5669 5671 5676 5678 5681 5683 5685 5688 5690 5692 5695 5697 5698 5700 5701 5702 5703 5704 5704 5704 5704 5704 5705 5704 5704 5704 5704
5696 5695 5693 5691 5688 5686 5684 5682 5680 5678 5676 5673 5671 5669 5668 5666 5664 5663 5664 5667 5671 5675 5677 5679 5682 5685 5688 5690 5693 5695 5696 5697 5699 5701 5702 5702 5702 5703 5703 5703 5703 5703 5704
5693 5692 5690 5688 5686 5683 5681 5679 5676 5674 5672 5670 5667 5665 5663 5661 5659 5657 5656 5657 5659 5665 5669 5672 5674 5677 5679 5682 5685 5687 5689 5692 5694 5696 5698 5699 5700 5700 5700 5701 5701 5702 5702
5690 5689 5687 5685 5682 5680 5678 5675 5673 5670 5668 5665 5663 5661 5659 5657 5655 5653 5651 5651 5651 5655 5658 5663 5665 5667 5670 5673 5676 5679 5681 5684 5687 5690 5692 5694 5695 5697 5698 5698 5699 5700 5700
5688 5686 5684 5682 5679 5677 5675 5672 5669 5666 5664 5661 5659 5656 5654 5652 5650 5648 5646 5645 5644 5645 5648 5652 5656 5658 5660 5663 5666 5669 5672 5675 5679 5681 5685 5687 5689 5691 5693 5695 5696 5697 5698
5686 5684 5681 5678 5676 5673 5671 5668 5665 5662 5659 5657 5654 5651 5648 5647 5645 5643 5641 5639 5638 5638 5639 5642 5644 5649 5651 5653 5656 5659 5663 5666 5669 5673 5676 5679 5682 5685 5687 5689 5692 5694 5695
5684 5681 5678 5675 5672 5670 5667 5664 5661 5658 5655 5652 5649 5646 5643 5641 5639 5637 5635 5633 5631 5631 5631 5633 5634 5637 5640 5644 5647 5650 5653 5656 5660 5664 5667 5671 5674 5677 5680 5684 5686 5689 5692
5681 5678 5675 5672 5669 5667 5663 5660 5657 5653 5650 5647 5644 5641 5638 5635 5632 5630 5628 5626 5624 5623 5623 5626 5625 5627 5629 5633 5637 5640 5643 5647 5651 5655 5659 5663 5667 5670 5674 5677 5681 5684 5687
5679 5676 5673 5669 5667 5664 5660 5656 5653 5649 5646 5642 5639 5636 5633 5630 5627 5624 5621 5619 5617 5616 5615 5617 5617 5617 5619 5622 5625 5629 5633 5637 5641 5645 5649 5654 5658 5663 5666 5670 5674 5678 5682
5676 5673 5670 5667 5664 5661 5657 5653 5649 5646 5642 5638 5635 5631 5628 5624 5621 5618 5615 5612 5610 5609 5607 5607 5608 5608 5609 5611 5614 5618 5622 5626 5631 5636 5640 5645 5650 5654 5658 5663 5667 5671 5676
5674 5671 5668 5664 5661 5658 5654 5650 5646 5642 5638 5634 5631 5627 5623 5619 5616 5613 5609 5606 5603 5600 5598 5598 5599 5600 5600 5601 5602 5606 5611 5615 5620 5626 5631 5636 5640 5645 5650 5655 5661 5665 5670
5672 5668 5665 5661 5658 5654 5651 5647 5643 5639 5634 5630 5626 5623 5619 5615 5612 5607 5604 5600 5596 5593 5591 5590 5590 5591 5592 5592 5594 5597 5601 5605 5609 5614 5620 5626 5631 5636 5641 5647 5652 5657 5662
5668 5665 5661 5658 5654 5652 5649 5644 5640 5635 5630 5626 5622 5619 5615 5611 5607 5603 5599 5595 5591 5587 5585 5583 5583 5583 5585 5585 5586 5588 5590 5594 5600 5605 5608 5615 5620 5626 5632 5638 5644 5650 5655
5665 5661 5658 5654 5651 5648 5644 5640 5636 5631 5627 5622 5618 5614 5610 5608 5602 5598 5594 5590 5587 5584 5582 5579 5579 5579 5579 5580 5579 5581 5582 5585 5590 5595 5597 5605 5610 5617 5623 5630 5636 5642 5648
5661 5657 5654 5651 5647 5645 5641 5637 5632 5627 5623 5618 5614 5610 5606 5602 5598 5593 5589 5585 5582 5580 5577 5576 5575 5575 5574 5574 5573 5574 5576 5578 5582 5584 5587 5594 5602 5608 5615 5622 5628 5634 5640
5657 5654 5651 5647 5643 5641 5637 5633 5628 5622 5618 5615 5611 5606 5602 5597 5594 5588 5583 5580 5578 5576 5574 5572 5570 5569 5569 5568 5567 5566 5568 5569 5575 5579 5580 5584 5593 5598 5606 5614 5621 5626 5632
5654 5651 5647 5643 5639 5636 5633 5629 5623 5618 5613 5611 5607 5603 5598 5594 5590 5584 5578 5575 5573 5572 5569 5567 5565 5564 5563 5563 5562 5561 5563 5564 5567 5571 5574 5576 5583 5587 5596 5606 5612 5617 5623